Wind_Speed
47 46 45 44 43 42 42 41 40 40 39 38 38 37 37 36 36 35 34 33 32 32 31 30 30 30 29 28 27 26 26 25 25 25 25 24 24 23 23 23 22 22 22 22 22 22 22 22 21 21 21 21 21 21 21 21 21 21 20 20 19 18 17 16 15 13 13 12 12 12 12 14 15 16 17 17 17 17 18 18 17 15 14 12 11 10 11 10
49 48 47 46 45 44 44 43 42 41 41 40 40 39 39 38 37 37 36 35 34 34 33 32 32 32 31 30 29 28 27 27 27 26 26 25 25 25 25 24 24 24 24 23 23 23 23 23 22 22 22 22 22 22 22 22 22 22 21 20 20 19 18 17 15 14 13 12 12 12 13 14 15 16 17 17 17 18 19 19 17 17 15 13 12 11 11 11
51 50 49 48 47 46 45 45 44 43 43 42 42 41 41 40 39 39 38 37 36 36 35 34 34 33 33 32 31 30 29 28 28 28 27 27 27 26 26 26 26 25 25 25 24 24 24 24 24 24 23 23 23 23 23 23 22 22 22 21 21 20 19 17 16 15 14 13 12 13 14 15 15 16 17 17 17 18 19 19 18 17 17 15 13 12 11 11
54 53 51 51 50 48 47 46 46 45 45 44 44 43 43 42 41 40 40 39 38 38 37 36 36 35 34 33 32 31 30 30 29 29 28 28 28 28 28 27 27 27 26 26 26 26 25 25 25 25 25 25 25 24 24 24 23 22 22 22 21 20 19 18 17 16 15 14 13 13 14 15 16 16 17 18 18 18 19 19 18 18 18 16 15 14 13 13
56 55 54 53 52 51 50 48 48 47 46 46 45 45 45 44 43 42 42 41 41 40 39 38 37 36 35 34 33 33 32 31 31 30 30 30 30 29 29 29 28 28 28 27 27 27 27 27 27 27 27 26 26 25 25 24 23 23 23 22 22 21 20 19 18 17 17 16 15 14 15 15 16 17 18 19 19 19 20 19 19 18 18 17 17 16 15 15
57 56 56 55 54 53 52 51 50 49 48 47 47 47 47 46 45 45 44 43 43 42 41 40 39 38 37 36 35 34 33 33 33 32 31 31 31 31 31 30 30 29 29 29 29 29 29 28 28 28 28 27 27 26 26 25 24 23 23 22 22 22 21 20 19 19 18 17 16 15 16 16 16 17 19 20 20 20 20 20 19 19 19 18 18 18 18 18
58 57 57 56 55 55 54 53 52 51 50 49 49 48 48 48 47 46 46 45 45 44 43 42 41 40 39 38 36 35 35 35 35 33 32 32 32 32 32 31 31 31 30 30 30 30 30 29 29 29 29 28 28 27 26 26 25 24 23 23 22 22 21 21 21 20 20 19 17 16 17 17 18 19 20 22 21 21 21 20 20 20 20 20 20 20 21 21
59 58 58 57 56 56 55 54 54 53 52 51 51 50 50 49 48 48 48 47 47 46 45 44 43 42 41 40 38 37 36 37 36 35 34 34 34 33 33 32 32 31 31 31 31 31 31 30 30 29 29 29 29 28 27 26 25 24 24 23 23 22 22 22 22 22 22 20 19 18 18 18 19 20 22 23 23 24 23 21 21 21 21 21 21 22 23 24
59 59 59 58 57 57 56 56 55 55 54 53 53 52 51 51 50 49 49 49 48 48 47 46 45 43 42 41 40 39 38 38 38 37 36 36 35 35 34 34 33 32 32 32 32 31 31 31 31 30 30 30 29 29 28 27 26 25 24 24 23 23 23 23 23 24 24 22 20 19 19 20 20 22 23 24 25 26 25 24 23 23 23 23 24 24 25 25
60 59 60 59 58 58 57 57 57 56 56 55 54 54 53 52 51 51 50 50 50 49 48 47 46 45 44 43 42 41 40 40 40 40 39 38 37 37 36 35 35 34 33 33 33 32 32 31 31 30 30 31 30 29 28 27 27 25 25 24 24 24 24 24 25 26 25 23 22 21 21 21 22 23 24 25 26 27 27 26 26 25 25 25 26 27 27 27
60 60 60 60 59 59 58 58 57 57 57 57 56 55 55 54 53 52 52 51 51 50 49 48 47 46 46 45 44 43 42 41 42 42 41 40 39 39 38 37 36 35 35 34 34 33 33 32 32 31 31 31 30 30 29 28 27 26 26 25 25 25 25 26 27 27 25 24 23 22 22 22 23 23 24 25 26 27 27 27 27 27 26 27 28 29 29 30
61 61 60 60 60 59 59 59 58 58 57 58 57 57 56 56 55 54 53 52 52 51 50 49 48 47 46 46 46 45 43 43 44 44 43 42 41 40 40 39 38 37 36 36 35 35 34 34 33 32 32 32 31 30 30 29 28 28 27 26 26 25 26 28 28 26 25 24 24 22 22 23 23 23 24 26 26 27 27 27 27 26 27 27 29 30 30 31
61 61 61 61 60 60 60 60 59 59 58 58 58 58 58 57 57 56 55 53 53 52 51 50 49 48 47 47 47 46 45 45 45 45 45 44 43 42 42 41 40 39 38 38 37 36 36 35 34 34 34 33 33 31 31 31 29 29 28 27 28 27 28 29 27 25 25 24 24 23 22 23 24 22 24 26 26 27 28 27 27 26 27 27 28 29 30 31
62 61 61 61 61 61 60 60 60 59 59 59 58 58 58 58 58 57 56 55 54 53 52 51 50 50 48 48 49 47 46 46 46 46 46 45 45 44 44 43 42 41 40 40 39 38 38 37 36 35 35 34 34 33 32 32 31 30 29 29 31 29 28 29 26 24 25 24 24 24 22 23 24 22 23 26 26 27 27 26 26 26 27 27 28 28 29 30
64 62 61 61 61 61 61 61 61 60 60 59 59 58 58 58 58 58 57 56 56 54 53 52 51 51 49 49 51 49 48 48 47 47 46 47 47 46 46 45 44 43 42 42 41 41 40 39 38 37 37 36 35 34 33 32 32 32 31 31 34 31 27 28 27 25 25 23 24 24 23 23 25 23 23 25 26 25 25 25 25 26 26 27 27 28 28 29
68 66 63 62 61 61 62 62 62 61 61 60 60 59 59 59 59 58 58 57 57 56 55 53 53 52 50 50 52 51 50 49 48 47 47 48 47 47 46 45 45 45 44 44 43 42 42 41 40 39 39 39 38 36 33 32 33 34 33 34 35 32 28 28 28 26 24 24 24 24 24 25 25 25 24 26 26 25 25 25 25 26 27 27 27 28 28 29
70 69 67 65 63 61 61 62 61 62 62 62 61 60 59 59 59 59 58 58 57 56 56 54 54 53 51 51 53 53 52 51 49 49 49 49 48 47 47 46 46 46 46 46 44 44 44 43 42 41 42 42 41 38 33 33 35 36 36 36 35 34 31 29 28 27 24 24 25 25 26 26 26 27 27 27 27 26 26 26 27 28 28 28 29 29 29 30
68 69 69 69 67 64 63 62 62 62 62 62 62 61 60 59 59 59 58 58 57 57 56 55 56 55 51 52 53 54 53 51 50 51 50 49 49 48 48 47 47 47 47 47 46 46 45 44 43 43 45 46 43 38 34 36 38 38 38 38 37 36 35 31 29 28 26 24 26 27 28 28 28 28 29 29 29 28 28 28 29 29 30 30 31 31 31 31
67 67 68 69 69 68 66 65 64 63 62 62 62 62 61 61 60 59 58 58 57 57 57 57 57 54 51 52 54 54 54 52 51 51 50 50 50 50 50 49 49 49 48 47 47 47 45 44 43 45 49 48 43 40 38 39 41 40 39 39 39 39 39 36 31 29 27 26 27 29 30 31 30 30 31 32 31 31 31 31 31 31 32 32 33 33 33 33
69 68 68 68 69 69 68 67 66 64 63 63 62 62 62 61 61 60 59 59 59 59 58 56 56 54 51 52 54 55 54 53 51 51 51 51 51 51 51 51 51 51 50 49 48 48 46 43 44 50 50 46 44 43 42 42 42 42 41 41 41 41 42 40 35 31 29 28 30 32 32 33 32 31 34 35 33 33 33 33 33 34 34 34 35 35 35 35
72 71 70 69 69 69 69 69 67 65 64 63 62 62 62 63 63 62 61 61 61 60 58 56 56 55 53 53 55 55 55 53 52 52 52 53 52 52 52 53 53 53 52 51 50 49 47 43 47 53 49 45 46 46 45 44 44 44 43 42 42 43 44 43 38 35 33 31 33 35 34 35 35 34 37 38 36 35 36 36 36 36 36 36 37 37 37 37
74 73 72 72 70 70 70 69 68 67 65 63 62 63 63 65 65 63 63 63 61 61 59 57 56 55 54 55 55 56 55 54 54 54 54 54 53 53 53 54 55 54 53 53 51 50 47 45 50 53 49 47 48 47 47 46 45 45 45 44 44 45 46 45 41 40 40 36 35 37 36 37 39 38 40 40 39 39 39 38 39 38 38 38 38 38 38 39
76 75 75 74 73 73 72 71 69 68 66 64 64 65 65 66 66 66 66 65 62 62 60 57 57 56 55 55 56 57 56 55 55 55 56 56 55 55 55 56 56 54 54 54 53 52 48 47 51 52 50 49 49 48 49 48 47 46 46 45 45 47 48 46 44 44 44 40 38 41 39 39 42 42 43 43 42 43 42 41 41 41 41 41 41 41 41 41
78 77 76 76 76 76 75 74 71 69 68 67 67 67 67 67 67 67 68 67 64 62 61 59 57 56 55 56 57 58 56 56 56 56 58 58 57 58 57 57 57 54 54 56 56 53 49 48 52 54 53 52 50 50 50 49 49 48 47 46 47 49 49 48 46 45 46 44 43 44 41 40 46 46 45 46 46 45 44 44 44 44 44 44 44 44 44 44
80 79 78 77 77 77 77 75 71 71 71 70 71 71 70 68 68 69 70 70 65 61 61 60 58 56 56 57 57 58 58 58 57 57 60 60 59 60 59 58 57 55 56 58 57 53 49 49 54 56 55 53 51 51 52 53 51 48 47 49 51 50 49 49 48 47 46 45 46 48 42 40 47 49 48 49 48 47 46 46 47 47 46 46 47 47 46 46
84 83 81 79 77 77 77 73 71 74 73 73 74 74 72 70 71 71 72 73 66 60 61 61 59 57 56 57 58 60 61 56 56 59 60 61 61 61 60 58 57 56 57 59 58 52 49 51 56 57 56 55 53 52 54 56 53 48 47 51 54 52 50 50 50 49 47 45 46 50 47 43 46 51 52 50 49 49 49 49 49 49 49 49 50 49 49 48
88 86 84 82 79 78 75 71 73 74 73 75 77 76 74 73 74 73 74 76 66 57 60 62 60 57 56 58 60 62 59 54 58 62 61 62 63 62 60 58 58 58 58 59 57 51 50 53 55 56 56 55 54 54 57 57 53 48 49 53 55 54 53 52 51 50 49 46 45 49 52 47 45 50 55 52 50 51 52 51 51 51 51 52 52 52 51 51
89 88 87 85 83 80 76 74 75 74 73 76 78 77 76 76 77 75 78 77 62 54 58 61 62 60 59 61 62 62 59 56 60 63 62 63 62 61 60 58 58 59 59 58 56 51 50 53 55 57 56 54 55 56 57 57 53 49 51 53 55 55 55 54 53 51 50 48 45 48 55 52 46 49 54 53 52 54 54 53 53 53 54 54 54 54 54 53
91 90 89 87 85 83 80 77 75 75 77 79 80 79 79 80 79 79 82 75 57 52 57 61 63 63 62 63 64 64 62 60 62 62 63 64 62 61 61 59 60 60 59 58 55 52 50 53 55 55 54 54 56 57 56 55 53 51 52 53 54 55 55 54 53 52 51 48 46 50 57 56 48 46 53 55 55 57 56 55 56 56 56 55 55 55 56 56
91 91 90 89 87 84 81 78 76 78 81 81 82 82 82 83 82 84 84 69 54 52 57 61 64 65 65 66 66 66 65 64 64 63 64 63 63 62 61 61 61 59 59 58 55 52 51 52 53 53 53 53 54 55 55 55 54 53 53 53 53 54 54 53 52 52 52 47 47 53 58 58 48 43 51 58 58 57 57 58 58 58 58 57 57 57 57 58
89 90 90 90 88 85 82 79 78 82 84 85 85 85 85 85 85 87 81 66 58 58 58 61 64 65 68 69 69 69 68 67 66 65 65 65 65 64 61 61 59 57 56 54 53 52 52 51 51 51 51 51 52 53 54 54 54 54 53 53 54 54 53 53 52 53 52 48 49 54 57 57 48 42 50 57 59 59 59 60 60 59 59 59 58 59 59 60
87 88 89 89 88 86 83 80 81 86 87 87 88 88 87 88 89 85 75 67 67 64 60 61 62 65 69 70 71 71 70 70 69 68 68 68 67 64 60 59 57 56 54 52 53 54 53 51 50 50 50 50 52 53 54 54 55 55 55 54 56 56 54 54 54 55 55 52 51 53 56 54 48 45 50 54 58 60 59 59 59 59 60 60 60 60 61 62
86 87 88 89 88 86 83 81 84 88 88 87 89 90 90 92 90 80 72 71 71 67 64 64 65 67 70 71 72 73 73 73 72 71 71 70 67 63 60 59 58 58 56 55 56 56 54 53 51 51 51 52 54 54 54 55 56 56 55 55 57 58 57 56 57 57 56 54 53 54 55 52 48 49 53 54 56 58 59 59 59 59 60 60 61 62 63 63
86 86 87 89 89 87 84 83 86 88 88 89 91 91 93 94 86 76 74 75 72 70 68 69 70 71 70 71 72 74 76 76 75 75 74 71 67 62 61 61 60 61 61 58 58 58 57 55 54 55 55 55 56 56 55 55 56 55 55 57 58 59 59 59 59 59 57 56 55 54 54 51 49 52 54 55 55 56 58 60 60 60 61 62 64 65 65 65
88 88 87 89 91 89 87 86 88 90 90 91 92 94 95 91 80 75 77 77 75 73 73 74 75 75 74 72 71 73 77 78 78 78 76 71 67 63 62 62 61 63 63 62 61 61 61 58 57 59 59 57 57 57 56 56 57 55 56 57 57 59 61 61 60 59 58 58 56 55 55 53 53 54 55 55 57 58 59 59 60 61 62 64 66 67 67 66
91 92 90 89 90 90 88 86 87 90 91 91 94 96 91 83 76 75 77 78 77 76 77 79 79 78 77 75 73 74 75 77 79 80 77 72 67 64 62 62 64 65 65 66 65 64 64 61 59 60 60 59 60 59 58 59 58 57 58 58 58 62 64 62 61 60 60 60 56 55 56 56 57 56 55 57 60 61 61 60 61 62 63 65 67 68 68 67
94 94 93 88 87 89 88 85 86 90 92 93 96 94 86 78 75 75 76 77 77 77 80 81 80 79 78 76 75 76 76 77 78 78 77 74 70 66 65 66 69 69 68 70 70 67 66 64 60 62 62 62 63 63 61 61 60 59 60 60 63 66 65 63 63 62 62 61 57 56 57 57 58 56 56 60 62 62 62 62 63 65 66 68 70 70 70 70
97 96 94 89 87 89 90 88 87 91 94 97 99 94 85 80 77 75 75 75 75 77 80 81 80 80 80 78 77 77 78 77 77 77 77 76 73 69 69 71 72 71 71 74 73 69 69 68 64 63 64 65 66 66 64 63 64 64 64 64 67 68 66 66 66 63 63 63 60 59 57 57 58 57 59 62 64 63 64 64 66 67 70 72 73 72 72 72
100 100 97 91 89 90 92 91 91 95 98 101 101 94 85 82 80 79 79 78 76 78 79 78 79 81 81 80 79 78 78 78 77 79 78 77 74 71 72 74 75 74 75 77 77 73 73 72 68 65 68 70 70 69 67 67 69 69 67 66 68 68 68 68 67 66 66 65 63 62 59 58 59 60 61 63 64 65 65 66 68 70 72 73 73 73 73 72
102 103 99 95 93 93 94 95 97 100 102 103 101 93 86 85 85 84 84 83 81 81 80 78 79 80 80 80 80 79 79 79 78 79 79 76 74 72 73 76 77 78 79 80 80 77 75 75 72 69 71 73 72 71 72 72 72 72 69 67 68 69 70 69 68 68 68 66 65 64 60 57 57 59 60 61 62 64 65 67 69 70 71 72 72 71 71 71
103 105 101 98 98 97 97 101 103 105 106 105 101 94 89 90 89 87 87 86 85 83 82 80 80 80 78 79 80 79 80 82 80 79 78 75 73 74 75 78 80 80 82 82 81 78 77 77 76 74 73 75 75 75 76 76 74 74 72 70 69 71 72 72 69 69 69 68 66 64 59 54 54 55 56 59 61 63 66 68 69 70 70 71 70 70 70 70
102 104 102 100 101 100 101 105 107 108 108 105 101 96 93 93 91 90 90 89 87 85 84 82 81 81 79 78 78 78 79 82 81 79 78 76 76 77 77 79 81 82 83 83 81 80 80 80 80 77 75 77 78 77 78 78 76 76 74 72 72 74 75 75 73 70 70 68 66 65 59 52 54 55 56 59 61 63 67 68 69 70 70 70 70 71 71 71
102 102 102 103 103 102 104 106 108 109 108 104 101 100 99 97 95 95 94 92 91 88 86 84 83 83 82 80 79 78 79 81 81 79 79 78 78 78 78 79 81 82 84 84 82 82 83 83 83 81 78 78 79 78 78 78 76 75 74 75 76 77 78 78 75 72 70 67 67 68 60 52 54 57 59 62 64 66 68 69 70 71 71 72 73 73 73 73
101 101 101 103 104 104 105 107 108 108 105 103 103 103 101 100 99 98 96 94 93 91 89 87 85 85 85 84 83 81 80 82 81 79 79 79 77 77 78 79 79 82 84 84 85 86 86 86 87 85 81 79 79 79 78 77 76 75 75 76 77 78 80 79 78 76 71 66 67 68 61 57 59 61 63 67 68 69 71 72 74 75 75 76 76 75 75 75
103 102 101 101 102 104 105 106 106 105 103 102 103 103 102 102 101 99 98 96 95 95 93 91 89 89 89 88 87 85 83 82 81 80 79 79 78 78 79 80 80 82 83 84 85 87 88 89 89 87 84 81 80 80 78 77 78 77 76 76 77 78 80 80 80 78 71 67 67 66 63 65 67 67 69 72 72 74 75 77 78 79 79 79 78 78 78 80
107 105 104 102 101 102 104 104 104 104 103 102 103 103 103 102 101 100 100 100 98 97 96 95 94 94 93 92 90 88 86 84 84 82 79 78 78 80 81 82 82 82 83 84 85 86 88 89 89 87 86 84 83 81 79 77 78 77 77 77 78 79 80 81 80 77 72 71 69 66 68 72 72 74 76 76 77 79 80 81 82 83 83 82 81 82 83 84
110 108 106 104 103 103 104 105 104 103 102 103 103 103 103 102 101 101 102 100 99 98 98 99 98 97 96 94 92 90 89 88 88 85 82 80 80 81 82 84 84 84 84 85 86 86 87 87 87 88 88 87 86 84 82 79 78 78 78 78 78 79 80 81 79 76 76 77 71 68 73 76 75 78 80 79 81 82 82 84 85 85 85 84 85 86 87 87
111 110 108 107 105 104 102 101 101 101 99 101 103 103 102 102 102 102 100 98 98 98 99 99 98 96 95 94 94 94 93 92 91 88 85 84 83 83 83 84 85 86 87 87 87 88 89 88 87 88 89 88 89 88 86 84 81 79 79 78 78 79 80 80 78 77 80 80 72 71 77 77 77 81 81 80 83 85 85 86 86 87 88 88 89 90 91 91
112 111 110 109 107 105 101 98 97 98 95 95 98 101 102 101 99 97 96 96 96 95 96 96 94 93 94 95 96 96 95 94 92 90 88 88 87 87 86 85 85 86 88 89 89 90 91 89 88 89 90 89 90 90 88 87 84 81 79 78 78 79 80 80 79 79 82 81 75 77 81 79 79 83 83 83 86 88 89 90 90 92 92 92 93 94 95 96
113 111 110 110 109 108 105 101 98 98 96 93 93 98 100 100 98 95 95 96 95 93 94 93 91 90 93 94 96 96 95 93 93 92 91 91 91 91 90 88 87 87 88 90 91 92 92 89 87 89 91 90 89 88 88 88 86 84 81 79 78 80 81 82 82 83 85 83 80 83 84 81 82 86 87 88 90 91 93 94 95 95 95 95 96 96 98 99
113 112 111 111 111 110 109 106 102 100 98 95 92 94 97 97 96 95 96 96 93 92 93 92 89 90 93 94 95 94 93 93 93 92 92 93 93 93 92 92 91 90 90 91 92 93 93 90 87 88 89 89 88 88 88 88 88 88 82 77 78 82 83 83 84 85 86 85 85 87 86 84 87 91 93 93 94 94 95 95 96 96 95 95 96 97 98 99
114 114 113 112 112 112 110 108 106 104 102 99 95 94 94 94 93 94 97 98 95 91 91 90 89 89 91 92 91 91 91 92 93 92 92 93 94 93 93 93 93 93 94 94 94 94 93 91 89 88 89 89 88 89 89 90 92 89 80 77 81 86 86 85 85 85 86 88 89 90 89 90 93 96 96 96 96 96 96 96 96 96 96 96 96 98 99 101
Wind_Direction
228 228 229 229 229 230 231 232 233 234 235 237 237 238 239 240 241 241 242 243 245 246 248 249 251 252 254 255 257 258 260 261 262 264 265 266 267 268 269 269 269 269 269 269 269 269 270 271 272 272 273 274 274 275 275 276 278 279 281 282 282 283 284 283 282 281 277 274 271 264 257 255 258 261 261 259 260 261 262 264 267 268 266 264 263 265 267 272
228 229 229 230 230 230 231 231 232 234 235 236 237 239 239 240 241 242 243 243 244 246 247 248 250 251 253 255 256 257 258 260 261 262 264 265 266 267 267 267 268 268 268 268 268 269 270 270 271 271 272 272 273 273 274 275 276 277 278 279 279 280 281 281 281 280 277 274 272 268 262 257 258 261 263 263 261 260 261 262 266 268 267 264 260 260 260 263
228 229 230 230 231 231 232 232 232 233 234 236 237 239 240 240 241 242 243 244 244 245 247 248 249 251 252 254 255 256 258 259 260 262 263 264 265 265 265 265 266 266 267 268 268 268 269 269 269 270 270 270 270 271 271 272 273 274 275 276 277 278 279 280 280 278 277 274 271 269 266 261 259 260 263 263 262 261 261 262 263 265 266 265 263 262 259 259
228 229 230 230 231 232 232 233 233 234 235 236 237 238 240 241 241 242 243 244 245 245 246 247 249 250 252 253 254 256 257 259 260 261 263 264 264 264 264 264 264 265 265 266 267 267 268 269 269 269 269 269 269 270 270 271 272 273 275 276 277 277 278 278 278 277 274 271 267 266 266 263 262 262 263 263 263 262 263 264 263 262 263 264 264 264 263 261
229 229 229 230 231 232 232 233 234 235 236 237 238 239 240 241 242 242 243 244 245 245 246 247 248 250 251 252 254 255 257 258 259 261 262 263 264 264 264 264 264 264 265 265 265 266 267 268 268 269 269 269 270 270 271 271 272 273 274 275 276 276 277 277 276 275 272 268 264 262 262 262 261 262 263 264 265 265 266 268 267 264 263 264 264 264 264 264
231 231 231 231 231 232 233 233 235 236 237 238 238 239 240 241 242 243 244 244 245 246 246 247 249 250 251 252 253 255 256 258 259 260 262 263 264 264 264 265 265 265 265 265 265 266 267 268 269 270 271 271 272 272 273 273 273 273 273 274 275 276 276 276 274 272 270 267 263 261 261 260 259 260 262 262 264 266 269 271 271 270 268 267 266 266 266 266
233 233 233 233 233 233 233 234 235 236 237 238 239 240 241 242 242 243 244 245 246 246 247 247 249 250 251 252 253 254 255 257 259 259 261 262 263 263 264 265 265 266 266 266 267 267 269 270 270 272 273 274 274 275 275 276 275 275 274 274 275 276 276 276 274 271 267 265 263 261 261 260 259 260 261 262 262 263 265 267 270 272 273 273 272 272 272 272
234 234 234 235 235 235 235 235 236 237 237 238 240 241 242 243 243 244 245 245 246 247 247 248 248 249 251 252 252 253 255 257 259 259 260 261 261 262 263 264 265 266 266 267 268 269 270 271 272 273 274 275 276 277 277 277 277 277 276 276 276 276 276 275 274 272 268 265 262 261 260 259 260 261 262 264 264 263 262 263 265 268 271 273 274 274 275 276
235 235 235 235 236 236 236 236 237 237 238 239 240 241 242 243 244 244 245 246 246 247 248 248 249 249 250 251 252 253 254 256 258 259 259 260 261 261 262 263 264 265 266 268 269 270 272 273 274 274 275 276 277 278 279 279 278 278 277 276 275 275 275 274 272 271 269 267 264 262 261 260 259 261 263 264 266 266 265 264 263 264 266 268 271 272 273 274
236 236 236 236 236 237 237 237 238 238 239 239 240 241 242 244 244 245 245 246 247 247 248 249 250 250 251 251 252 253 253 255 257 258 258 259 260 261 262 262 263 264 266 268 270 271 272 273 274 275 275 276 278 279 280 280 279 278 277 276 275 274 274 272 270 269 269 269 268 264 263 262 261 261 263 264 265 266 267 266 265 264 265 266 268 270 271 272
237 237 237 237 237 238 238 239 239 239 239 240 240 241 242 243 244 245 246 246 247 248 249 249 250 250 251 251 252 253 252 254 256 257 258 258 258 260 261 262 263 264 265 267 269 271 272 273 274 275 275 277 278 279 280 280 280 279 277 277 276 275 274 272 271 270 271 272 270 268 267 266 264 263 264 266 266 267 267 267 268 268 268 269 270 271 272 273
236 237 237 238 238 239 239 240 240 240 240 240 240 241 242 243 244 245 246 246 247 248 249 250 250 251 251 252 252 252 252 253 255 256 257 257 258 258 260 262 263 263 264 266 268 270 271 272 273 274 275 276 278 279 280 280 279 279 278 278 276 275 274 272 272 274 277 276 274 272 271 270 267 266 266 267 269 269 269 269 270 270 271 271 272 273 274 275
235 236 237 238 238 239 239 240 241 241 241 241 241 241 242 243 243 244 245 246 247 248 249 250 250 251 252 252 253 253 252 252 254 256 257 258 258 258 259 260 262 263 264 265 267 268 270 271 272 273 274 275 277 278 279 279 279 279 279 279 277 274 273 272 273 277 278 278 277 275 274 273 271 268 269 270 271 271 272 273 273 273 272 272 273 274 275 276
235 236 236 237 238 239 239 240 241 241 241 242 242 242 242 243 243 244 245 245 246 247 248 249 250 251 251 252 253 253 253 253 253 255 256 258 259 259 259 260 261 262 263 264 265 267 268 270 271 272 273 274 275 276 277 278 279 279 279 280 276 273 272 275 276 277 276 277 278 278 276 275 274 271 271 272 272 273 275 276 276 275 275 274 273 273 273 275
234 235 236 237 237 238 239 240 241 241 242 242 242 242 242 243 243 244 245 246 246 247 248 248 249 250 251 252 253 253 253 253 253 254 256 258 259 259 260 260 261 262 263 263 264 266 267 269 270 271 272 273 273 274 274 276 279 279 279 278 275 272 273 276 276 275 275 276 276 278 277 276 274 273 272 272 273 274 276 277 277 277 276 276 275 274 274 273
233 234 236 237 238 238 239 239 240 241 242 242 242 242 243 243 243 244 245 246 246 247 248 248 249 249 250 251 253 253 253 253 254 255 256 257 258 260 260 261 262 262 263 263 263 265 266 267 269 271 272 272 272 271 272 276 278 277 277 275 275 275 273 273 274 272 273 275 276 277 277 276 275 274 273 272 273 274 276 276 277 277 276 276 276 275 275 275
234 234 235 236 237 238 239 240 240 241 242 242 242 243 243 243 243 244 245 246 247 247 248 248 249 249 249 250 252 254 254 254 255 256 256 258 259 260 261 261 261 262 262 262 263 264 265 266 268 270 271 271 269 269 272 275 275 275 274 274 276 277 273 270 271 271 269 271 274 275 274 274 275 276 274 273 273 274 275 275 276 276 276 277 277 276 277 277
234 234 235 235 236 237 238 240 241 241 242 243 243 243 243 244 244 244 245 246 247 248 248 248 249 249 249 251 253 254 254 255 255 256 257 258 259 260 261 261 261 261 261 262 262 263 264 265 267 269 269 268 268 269 272 272 272 272 274 275 276 276 274 270 268 269 268 268 271 272 272 272 273 274 274 273 274 274 273 273 274 275 276 276 276 277 277 278
231 233 234 235 236 236 237 239 240 241 242 243 243 243 244 244 244 245 245 246 246 247 247 248 249 250 250 251 253 254 255 255 255 256 257 258 259 259 260 260 260 260 261 261 261 262 263 264 267 267 266 267 269 270 270 269 270 271 273 275 275 275 275 272 268 268 268 269 270 270 271 272 271 273 274 273 274 273 272 272 273 273 274 275 275 276 276 277
229 230 231 233 235 235 236 237 239 240 241 242 243 243 244 245 245 245 245 245 245 246 246 247 249 250 250 251 253 255 255 255 256 256 257 257 257 258 259 259 260 260 260 261 261 262 262 263 265 264 264 267 270 269 269 268 269 270 271 272 274 275 275 273 271 269 268 270 272 271 272 274 273 274 275 273 272 273 272 272 272 273 273 274 275 275 276 276
229 230 230 231 233 234 235 236 238 239 240 241 242 243 244 244 244 244 244 245 245 246 246 247 248 249 249 250 252 254 255 256 256 256 256 257 257 257 258 259 259 259 260 260 260 261 262 263 263 263 265 267 268 268 268 268 269 269 269 270 272 273 274 273 273 273 270 269 272 274 274 276 276 275 276 275 274 273 272 272 271 271 272 273 274 275 276 276
229 230 230 231 231 233 234 235 236 238 239 241 242 243 243 243 243 243 243 244 245 246 247 247 248 248 249 250 251 253 254 255 256 256 256 257 257 257 257 258 258 258 260 260 260 261 262 262 262 264 266 266 267 268 268 268 269 269 269 270 271 271 272 273 274 275 273 270 271 274 275 277 278 277 276 277 276 275 273 272 271 272 272 273 274 274 275 276
230 230 231 231 232 233 233 234 235 237 238 240 241 242 242 242 243 242 242 243 243 245 246 246 247 248 249 250 251 252 253 254 255 256 257 257 257 257 256 257 258 258 260 261 260 260 260 262 263 265 266 265 266 267 267 268 268 268 269 269 269 270 270 272 273 274 274 273 274 274 274 278 279 277 276 277 276 275 274 273 273 273 273 274 274 275 275 275
230 231 231 232 232 233 234 234 235 236 238 239 240 241 242 242 242 242 242 241 241 243 245 245 246 247 248 249 250 251 253 253 254 255 257 257 257 257 257 257 258 259 260 260 260 260 260 262 264 265 265 265 265 266 267 267 267 267 269 270 269 269 270 271 271 272 274 276 276 274 274 278 280 277 276 277 275 274 275 274 274 274 274 275 275 276 276 276
229 230 231 232 233 234 235 235 236 237 238 239 240 241 241 242 243 243 242 241 239 240 244 245 245 246 247 249 251 252 252 252 254 255 256 257 257 258 257 258 259 260 260 261 261 261 261 262 263 263 264 265 266 267 268 267 266 267 270 271 269 269 270 271 272 272 273 275 276 275 274 276 278 278 277 277 277 277 277 277 276 276 276 277 276 276 277 278
229 230 231 231 233 234 235 236 237 238 239 240 241 241 242 243 244 243 243 242 238 238 244 246 245 245 247 249 250 251 251 252 255 255 255 256 257 257 258 259 260 261 260 261 261 261 262 261 261 263 264 265 266 267 268 267 267 268 270 270 270 271 271 271 272 272 272 273 276 278 277 274 275 278 278 277 279 280 279 278 277 278 278 278 278 278 278 278
229 230 231 231 232 234 235 236 238 239 240 241 241 241 242 243 244 244 244 243 237 236 243 247 247 246 246 249 250 250 251 251 254 254 254 255 256 257 258 259 260 260 260 261 262 262 262 261 261 263 264 265 266 266 266 268 269 270 270 270 271 272 272 272 272 273 274 274 275 278 278 275 274 277 278 278 280 280 279 279 279 279 279 279 279 279 279 279
229 230 231 231 232 233 234 235 237 238 240 241 241 241 242 242 243 244 244 243 237 235 241 246 248 247 246 247 249 251 250 250 252 254 254 255 256 257 258 258 259 260 261 262 263 263 263 263 263 263 264 265 266 266 267 269 270 270 270 270 271 272 273 273 273 274 275 275 276 277 276 274 273 275 278 280 280 279 279 279 280 279 279 279 280 280 280 279
230 230 231 231 231 232 233 234 236 238 240 241 241 241 241 241 242 242 243 242 237 234 238 244 248 249 248 247 249 251 250 249 251 253 255 256 256 257 257 258 258 260 261 262 263 264 264 265 264 265 266 266 266 267 268 270 270 270 269 269 270 272 272 273 275 275 275 276 276 274 273 272 272 275 279 280 278 278 279 280 279 279 279 280 280 280 279 279
231 231 231 231 231 232 233 234 236 238 239 240 241 241 241 241 241 242 242 240 238 235 235 241 246 248 249 248 248 249 249 249 250 252 254 256 256 256 256 257 258 260 262 264 265 265 264 264 266 267 267 267 267 268 269 269 269 268 268 268 269 270 272 274 274 274 274 274 273 270 271 272 274 277 278 278 277 278 278 278 278 278 279 279 279 279 279 278
234 233 233 232 232 232 232 233 235 237 238 239 240 240 241 241 241 242 241 240 239 235 232 237 242 246 249 249 249 249 249 249 250 251 252 254 255 255 257 259 261 262 264 266 266 265 263 263 265 266 267 268 269 269 268 268 267 267 267 268 269 270 271 272 272 272 272 271 270 270 272 274 278 278 275 276 277 277 276 277 278 278 279 279 279 279 278 278
235 235 234 234 233 233 232 232 234 236 237 238 239 240 241 241 241 241 241 242 241 236 233 237 241 245 248 249 250 250 250 249 249 250 251 252 254 256 258 260 263 264 264 264 264 262 261 261 262 264 266 267 267 266 266 266 267 267 268 269 270 271 271 272 272 271 272 271 271 272 273 277 280 278 273 273 275 277 277 277 278 278 278 279 279 279 279 278
236 236 236 235 234 233 232 232 235 236 237 239 240 240 241 241 241 242 242 243 242 239 237 238 239 242 246 249 250 251 251 250 249 250 251 252 254 256 258 260 262 263 262 261 261 262 262 261 262 262 263 263 264 264 265 266 267 268 270 271 272 272 273 272 271 271 273 273 272 272 274 278 280 277 274 273 275 277 278 278 278 278 278 279 280 280 279 279
238 238 237 236 235 233 231 232 234 236 237 238 239 240 240 241 241 242 243 243 242 241 240 240 240 240 243 247 250 251 252 252 252 252 252 253 254 255 257 258 260 262 262 260 261 262 262 261 261 261 260 261 263 264 265 266 268 269 270 271 272 274 273 271 271 272 274 273 273 274 276 277 276 275 276 277 276 276 276 277 278 279 280 280 280 280 280 280
237 238 238 237 236 234 232 232 234 237 238 239 240 240 241 242 242 242 243 244 243 243 242 241 241 240 241 244 248 251 252 253 254 254 254 255 255 255 256 258 260 262 262 262 261 261 261 260 260 261 261 262 263 264 265 266 267 268 270 271 272 272 271 271 272 273 273 273 274 276 276 276 275 275 278 279 278 276 276 277 279 280 280 280 280 280 280 281
236 237 238 237 236 235 234 234 237 240 241 241 242 242 242 243 243 243 243 243 243 243 242 242 241 241 241 242 245 249 251 253 253 254 255 256 257 256 257 258 260 261 262 262 261 260 261 260 260 262 263 263 264 264 264 265 267 268 270 271 270 269 269 272 273 273 273 274 275 275 276 277 277 278 280 279 278 279 280 281 281 280 280 280 280 280 281 282
235 236 237 237 237 237 235 236 239 242 243 243 244 244 244 244 243 243 243 244 243 243 244 243 243 243 243 243 245 247 250 251 252 254 255 256 257 257 257 258 259 260 261 262 261 260 261 261 260 261 263 263 264 264 264 266 268 268 268 268 268 269 271 273 273 273 274 275 275 274 276 277 279 280 279 278 278 280 281 282 281 280 279 277 278 279 280 281
235 236 236 237 237 237 236 235 237 241 243 244 245 244 244 244 243 243 244 245 245 244 245 245 244 243 244 244 244 246 248 250 251 252 253 254 255 256 257 258 258 259 260 261 261 261 262 261 259 261 263 263 264 264 265 267 267 266 266 267 269 272 274 274 274 274 274 274 274 274 275 277 278 279 278 278 279 280 280 280 278 277 276 276 277 278 279 280
236 236 235 235 236 236 236 236 237 240 242 244 245 245 244 245 245 244 244 244 245 245 246 247 246 244 244 245 245 245 246 248 249 250 251 253 254 255 256 257 258 259 260 261 261 261 262 262 261 261 263 264 264 265 266 265 265 265 267 269 272 274 274 274 275 274 274 274 275 274 274 275 276 277 278 278 280 280 279 277 275 275 275 276 277 279 280 280
238 238 236 235 235 235 236 237 237 239 241 243 245 245 244 244 244 244 244 244 244 245 246 247 248 247 246 246 245 244 245 246 246 248 249 251 253 254 255 257 258 259 260 261 261 261 262 263 263 262 262 264 264 265 265 265 265 267 268 269 271 272 273 274 274 275 275 274 273 273 273 275 278 279 279 279 278 277 275 274 275 276 277 278 279 280 282 283
238 240 238 236 237 236 236 237 238 240 242 244 245 246 245 245 244 244 245 246 246 246 247 248 249 250 249 248 248 246 247 247 247 247 248 249 252 253 254 255 257 258 259 261 262 262 262 262 262 261 262 264 264 265 266 266 267 268 268 269 271 272 273 273 272 272 272 273 273 274 276 278 279 278 277 276 275 275 275 275 276 277 278 280 281 283 284 285
238 240 240 238 238 238 238 239 240 241 243 245 247 247 247 247 246 245 245 246 247 247 248 248 249 251 251 251 250 249 248 249 248 248 248 248 249 251 252 253 255 257 259 260 262 263 263 263 262 262 262 263 264 265 266 267 268 269 270 271 270 270 270 270 270 270 271 273 275 275 276 277 277 276 274 273 273 273 275 276 277 278 280 281 282 283 284 286
237 239 240 239 239 239 239 240 241 242 243 245 246 247 246 246 247 246 245 245 246 247 248 249 250 251 251 251 251 251 250 250 249 248 248 248 248 249 251 252 254 256 258 260 261 262 262 263 263 262 262 263 264 265 266 268 269 269 269 268 267 268 269 269 271 271 271 272 274 275 277 277 275 274 273 271 271 271 273 275 277 278 280 281 282 284 285 287
237 238 239 240 240 240 240 241 242 243 244 245 246 247 247 248 248 248 248 248 248 249 249 250 251 252 252 252 251 251 251 252 252 250 249 249 248 249 251 252 254 255 257 259 260 260 261 262 262 262 263 263 265 265 266 267 267 267 266 267 268 268 269 270 272 272 271 272 273 274 277 277 273 272 271 271 271 272 273 274 275 277 278 279 281 283 285 285
236 236 237 238 239 240 241 242 243 244 244 245 246 246 247 248 249 250 250 250 250 250 250 251 252 253 253 253 252 251 251 252 253 252 251 250 250 249 250 251 253 254 256 257 258 259 260 260 261 262 264 264 264 264 265 265 265 266 267 268 268 268 269 270 271 272 273 273 272 273 276 275 273 272 271 271 272 273 274 275 276 276 277 278 279 281 281 281
235 236 236 237 238 240 241 242 243 244 244 244 245 246 247 248 249 250 251 251 251 252 252 252 253 253 253 254 254 254 253 253 253 253 252 252 251 250 250 251 251 253 254 256 257 258 259 260 260 262 263 264 263 263 264 264 265 267 267 268 268 269 270 270 271 272 274 272 271 273 275 274 273 273 272 272 274 275 276 276 277 277 278 278 279 279 280 280
235 235 236 237 237 239 241 242 243 244 245 246 246 247 248 249 249 250 251 252 253 253 253 253 253 253 254 255 255 255 255 254 254 254 253 253 252 252 252 252 252 252 253 255 256 257 258 259 260 261 262 263 264 264 264 264 265 267 268 268 269 269 270 270 272 273 273 272 271 273 273 273 273 273 273 274 276 276 277 277 277 278 278 279 279 279 280 281
234 235 236 237 237 238 240 242 243 244 245 246 247 247 248 249 249 250 251 252 253 253 253 253 254 254 255 255 255 256 255 255 255 255 254 254 253 253 253 253 253 253 254 255 256 257 258 259 260 261 261 263 264 265 266 266 265 266 267 268 268 269 270 271 272 273 273 274 274 273 272 273 274 275 276 277 277 277 277 277 277 278 278 278 278 279 279 280
233 234 235 236 237 238 238 240 241 242 243 245 246 247 247 247 249 250 251 251 251 252 253 253 254 254 255 255 254 255 255 255 256 256 256 255 254 253 253 253 253 254 254 255 256 257 258 258 259 261 262 262 264 265 267 268 267 266 266 267 268 269 271 272 273 274 274 274 274 272 272 274 276 277 278 277 277 277 277 277 277 277 277 277 278 279 280 281
232 233 234 235 236 237 237 237 239 240 241 242 244 247 248 248 248 249 250 251 251 251 252 252 252 252 252 253 253 254 255 256 256 256 256 256 255 254 254 253 254 254 255 255 255 256 257 258 258 260 261 262 263 265 267 268 268 267 265 266 268 269 271 273 275 274 274 274 273 272 273 275 276 276 276 275 276 277 277 277 276 276 277 277 278 280 282 283
230 231 233 234 235 235 236 236 237 239 240 240 241 244 247 248 249 250 250 250 249 249 250 251 251 251 251 251 252 253 254 254 255 255 255 256 256 256 256 255 255 255 256 256 256 256 257 258 259 260 261 262 263 264 265 267 267 267 267 269 271 270 271 272 272 272 273 273 273 272 273 274 274 273 274 275 276 277 277 277 277 278 279 280 281 283 284 285
229 230 231 233 234 235 236 236 237 238 239 239 240 241 244 246 247 248 250 250 249 248 248 248 249 251 252 253 253 254 254 254 254 254 255 256 256 256 257 257 257 256 256 256 257 257 258 259 260 261 262 263 263 264 265 265 265 265 267 270 270 269 269 269 269 270 270 271 271 271 272 272 272 273 275 276 276 277 278 279 279 280 281 282 284 285 285 286
Height
10764 10766 10767 10769 10771 10772 10774 10775 10777 10778 10780 10781 10782 10783 10784 10785 10786 10787 10788 10789 10790 10791 10792 10793 10794 10795 10795 10796 10797 10798 10798 10799 10799 10800 10800 10801 10801 10802 10802 10803 10803 10803 10803 10803 10803 10803 10803 10803 10803 10803 10803 10803 10802 10802 10801 10801 10801 10801 10801 10801 10801 10802 10802 10802 10803 10803 10803 10803 10803 10803 10803 10803 10802 10801 10801 10801 10802 10802 10802 10802 10803 10804 10804 10805 10805 10805 10805 10804
10759 10761 10763 10765 10766 10768 10770 10771 10773 10774 10776 10777 10778 10779 10780 10781 10782 10783 10785 10786 10787 10788 10789 10790 10791 10791 10792 10793 10794 10795 10796 10796 10797 10797 10798 10798 10799 10799 10800 10800 10800 10800 10801 10801 10801 10800 10800 10800 10800 10800 10800 10800 10800 10800 10799 10799 10799 10799 10799 10799 10799 10800 10800 10800 10801 10801 10801 10801 10801 10801 10801 10801 10801 10800 10799 10799 10800 10800 10800 10800 10801 10802 10802 10803 10803 10803 10803 10803
10755 10757 10759 10761 10762 10764 10766 10767 10769 10770 10772 10773 10774 10775 10776 10778 10779 10780 10781 10782 10783 10785 10786 10787 10787 10788 10789 10790 10791 10792 10793 10794 10794 10795 10795 10796 10796 10797 10797 10797 10798 10798 10798 10798 10798 10798 10798 10798 10798 10798 10798 10798 10798 10798 10797 10797 10797 10797 10797 10797 10797 10797 10798 10798 10798 10799 10799 10799 10800 10799 10799 10799 10799 10798 10798 10797 10798 10797 10797 10798 10799 10799 10800 10800 10801 10801 10801 10801
10750 10752 10754 10756 10758 10760 10762 10763 10765 10766 10768 10769 10770 10772 10773 10774 10775 10776 10777 10779 10780 10781 10782 10783 10784 10785 10786 10787 10788 10789 10790 10791 10791 10792 10792 10793 10793 10794 10794 10794 10795 10795 10795 10795 10795 10795 10795 10795 10795 10795 10795 10795 10795 10795 10795 10795 10795 10795 10795 10795 10795 10795 10795 10796 10796 10797 10797 10797 10798 10798 10797 10797 10796 10796 10796 10795 10795 10795 10795 10796 10797 10797 10797 10798 10798 10799 10799 10799
10745 10747 10749 10751 10754 10755 10757 10759 10761 10762 10764 10765 10767 10768 10769 10770 10771 10773 10774 10775 10776 10777 10779 10780 10781 10782 10783 10784 10785 10786 10787 10788 10788 10789 10789 10790 10790 10790 10791 10791 10792 10792 10792 10792 10792 10792 10793 10793 10792 10792 10792 10792 10793 10793 10793 10793 10793 10793 10793 10793 10793 10793 10793 10793 10794 10794 10795 10795 10796 10796 10795 10795 10794 10794 10793 10793 10793 10793 10792 10793 10793 10794 10795 10795 10796 10796 10796 10796
10741 10743 10745 10747 10749 10751 10753 10755 10756 10758 10760 10761 10763 10764 10765 10767 10768 10769 10770 10771 10772 10774 10775 10776 10777 10779 10780 10781 10782 10784 10785 10784 10785 10786 10786 10787 10787 10787 10788 10788 10788 10789 10789 10789 10789 10789 10790 10790 10790 10790 10790 10790 10790 10790 10791 10791 10791 10791 10791 10791 10790 10790 10791 10791 10791 10792 10792 10792 10793 10794 10793 10793 10793 10792 10791 10791 10791 10791 10790 10790 10790 10791 10792 10792 10793 10793 10793 10793
10736 10738 10740 10742 10744 10746 10748 10750 10752 10754 10756 10757 10759 10760 10762 10763 10765 10766 10767 10768 10769 10770 10772 10773 10774 10775 10776 10778 10779 10781 10782 10781 10781 10783 10783 10784 10784 10784 10784 10785 10785 10786 10786 10786 10786 10787 10787 10787 10787 10787 10787 10787 10787 10787 10788 10788 10788 10788 10788 10788 10788 10788 10788 10788 10788 10788 10789 10790 10790 10791 10791 10791 10790 10790 10789 10788 10789 10789 10789 10789 10788 10788 10789 10789 10789 10790 10790 10790
10731 10733 10735 10737 10739 10741 10743 10746 10747 10749 10751 10753 10755 10756 10758 10759 10761 10762 10763 10764 10766 10767 10768 10769 10771 10772 10773 10774 10776 10777 10778 10778 10778 10780 10780 10781 10781 10781 10781 10782 10782 10782 10783 10783 10783 10784 10784 10784 10784 10784 10784 10784 10784 10785 10785 10785 10785 10785 10785 10785 10785 10785 10785 10785 10785 10785 10785 10786 10788 10788 10788 10788 10788 10787 10786 10786 10786 10786 10787 10787 10787 10787 10787 10787 10787 10787 10787 10786
10726 10728 10730 10732 10735 10737 10739 10741 10743 10745 10747 10749 10751 10752 10754 10755 10757 10758 10759 10761 10762 10763 10764 10766 10767 10768 10769 10771 10772 10774 10775 10775 10775 10776 10777 10777 10777 10777 10778 10778 10779 10779 10780 10780 10780 10781 10781 10781 10781 10781 10781 10781 10781 10781 10782 10782 10782 10782 10783 10783 10782 10782 10782 10782 10782 10781 10782 10783 10784 10785 10785 10785 10785 10784 10784 10784 10783 10783 10784 10784 10785 10785 10785 10785 10784 10784 10784 10784
10721 10723 10725 10727 10729 10731 10734 10736 10738 10740 10742 10744 10746 10748 10749 10751 10753 10754 10756 10757 10758 10759 10761 10762 10763 10764 10766 10767 10769 10770 10771 10772 10771 10772 10773 10774 10774 10774 10774 10775 10776 10776 10777 10777 10777 10778 10778 10778 10778 10778 10778 10778 10778 10778 10779 10779 10779 10779 10779 10780 10780 10779 10779 10779 10778 10778 10778 10780 10781 10782 10782 10782 10782 10782 10781 10781 10780 10780 10780 10781 10781 10782 10782 10782 10782 10781 10781 10781
10715 10718 10720 10722 10725 10727 10729 10731 10733 10735 10737 10739 10741 10743 10744 10746 10748 10750 10751 10753 10754 10755 10757 10758 10759 10760 10762 10763 10765 10766 10768 10768 10767 10768 10769 10770 10770 10770 10771 10771 10772 10773 10773 10774 10774 10774 10774 10774 10775 10775 10774 10774 10775 10775 10775 10776 10776 10776 10776 10776 10777 10776 10776 10775 10774 10774 10776 10777 10777 10778 10779 10779 10779 10778 10778 10778 10777 10777 10777 10777 10777 10778 10778 10778 10778 10777 10777 10777
10709 10712 10715 10717 10720 10722 10724 10726 10728 10730 10732 10733 10736 10738 10739 10741 10743 10744 10746 10748 10750 10751 10752 10754 10755 10756 10758 10759 10760 10761 10764 10764 10763 10764 10764 10765 10766 10767 10767 10768 10768 10769 10770 10771 10771 10771 10771 10771 10771 10771 10771 10771 10771 10772 10772 10772 10773 10772 10773 10773 10773 10773 10773 10771 10771 10772 10773 10773 10774 10775 10775 10775 10775 10775 10775 10774 10774 10774 10774 10774 10774 10775 10775 10775 10774 10773 10773 10772
10704 10706 10709 10712 10715 10717 10719 10721 10722 10725 10727 10728 10730 10732 10734 10736 10738 10739 10741 10743 10745 10747 10748 10750 10751 10752 10754 10755 10755 10757 10759 10760 10760 10760 10760 10761 10762 10763 10763 10764 10765 10766 10766 10767 10767 10767 10767 10767 10767 10768 10767 10768 10768 10768 10769 10768 10769 10769 10769 10770 10769 10769 10769 10768 10769 10770 10770 10770 10770 10771 10772 10772 10771 10772 10771 10771 10770 10770 10770 10771 10771 10771 10771 10771 10771 10770 10769 10768
10698 10701 10704 10706 10709 10711 10713 10715 10717 10719 10721 10723 10725 10727 10729 10731 10733 10734 10736 10738 10740 10742 10743 10745 10746 10748 10750 10750 10750 10752 10754 10755 10756 10756 10756 10758 10758 10759 10759 10760 10761 10762 10762 10763 10763 10763 10763 10763 10764 10764 10764 10764 10764 10765 10765 10765 10765 10766 10766 10766 10765 10765 10766 10765 10766 10767 10766 10767 10767 10767 10768 10768 10768 10768 10768 10767 10767 10767 10767 10768 10768 10768 10767 10767 10767 10767 10766 10765
10692 10695 10698 10701 10703 10705 10707 10709 10711 10713 10716 10718 10720 10722 10724 10726 10727 10729 10731 10733 10734 10736 10738 10740 10742 10743 10746 10746 10744 10747 10749 10750 10751 10752 10753 10753 10753 10754 10755 10756 10757 10757 10758 10759 10759 10759 10759 10760 10760 10760 10760 10760 10761 10761 10762 10762 10762 10762 10763 10762 10760 10761 10764 10763 10763 10763 10763 10764 10764 10764 10765 10765 10764 10765 10765 10764 10764 10764 10764 10765 10764 10764 10764 10764 10764 10763 10763 10762
10685 10689 10692 10695 10697 10699 10701 10703 10706 10708 10710 10712 10714 10717 10718 10720 10722 10724 10726 10727 10729 10731 10733 10735 10736 10738 10741 10741 10739 10741 10743 10745 10747 10748 10749 10749 10749 10750 10750 10752 10752 10753 10754 10754 10755 10755 10755 10756 10756 10756 10756 10756 10756 10757 10759 10760 10758 10758 10758 10757 10756 10758 10760 10760 10759 10760 10761 10761 10761 10761 10761 10761 10761 10761 10762 10761 10761 10761 10761 10761 10761 10761 10760 10760 10760 10760 10759 10759
10678 10682 10686 10688 10690 10693 10695 10698 10700 10702 10704 10706 10709 10711 10713 10715 10717 10718 10721 10722 10724 10726 10728 10730 10731 10732 10736 10736 10735 10736 10738 10740 10742 10743 10744 10744 10745 10745 10746 10747 10748 10748 10749 10749 10751 10751 10751 10752 10752 10753 10752 10750 10751 10753 10757 10757 10754 10754 10753 10753 10753 10754 10755 10756 10757 10756 10758 10758 10758 10758 10757 10758 10758 10758 10758 10757 10758 10758 10758 10758 10757 10757 10757 10757 10756 10756 10756 10756
10670 10674 10678 10681 10683 10687 10689 10691 10694 10696 10698 10700 10703 10705 10707 10709 10711 10714 10716 10717 10719 10721 10723 10724 10724 10727 10732 10732 10730 10731 10732 10736 10737 10738 10739 10740 10740 10741 10741 10742 10743 10743 10744 10745 10746 10746 10747 10748 10749 10749 10746 10744 10747 10750 10753 10752 10750 10750 10749 10749 10749 10749 10749 10752 10754 10754 10754 10755 10755 10754 10753 10754 10755 10754 10754 10754 10754 10754 10754 10754 10753 10753 10753 10752 10752 10752 10753 10753
10662 10667 10670 10673 10676 10679 10682 10685 10687 10689 10692 10694 10697 10699 10701 10703 10706 10708 10710 10712 10714 10714 10716 10718 10719 10723 10728 10728 10726 10726 10727 10730 10732 10733 10735 10735 10736 10736 10736 10737 10738 10738 10739 10740 10740 10741 10742 10745 10746 10743 10739 10740 10744 10746 10748 10747 10745 10746 10746 10745 10745 10745 10744 10746 10750 10751 10751 10752 10751 10750 10749 10749 10751 10751 10750 10750 10751 10750 10750 10750 10750 10749 10749 10748 10748 10748 10749 10749
10655 10659 10662 10666 10669 10672 10675 10677 10680 10683 10685 10687 10690 10693 10695 10698 10700 10702 10704 10706 10707 10707 10710 10714 10715 10719 10723 10723 10721 10721 10722 10724 10727 10728 10729 10730 10730 10731 10732 10732 10732 10733 10734 10734 10736 10736 10738 10742 10741 10734 10734 10739 10741 10741 10742 10742 10741 10742 10742 10742 10741 10741 10739 10740 10745 10747 10747 10749 10747 10745 10746 10745 10746 10748 10746 10745 10746 10747 10746 10746 10746 10745 10744 10744 10744 10744 10744 10744
10648 10651 10656 10658 10661 10664 10668 10671 10674 10677 10678 10681 10684 10687 10690 10691 10691 10695 10697 10697 10700 10701 10705 10709 10710 10713 10717 10717 10716 10716 10717 10720 10722 10723 10723 10723 10724 10726 10727 10726 10726 10727 10728 10729 10731 10731 10733 10738 10734 10727 10731 10737 10735 10735 10736 10737 10737 10737 10737 10738 10738 10736 10734 10735 10740 10742 10742 10744 10743 10741 10742 10741 10741 10743 10741 10740 10742 10742 10742 10742 10741 10741 10740 10740 10739 10739 10739 10739
10640 10645 10648 10651 10654 10657 10659 10664 10667 10670 10672 10676 10679 10680 10681 10681 10683 10688 10689 10690 10695 10697 10700 10704 10706 10708 10710 10711 10711 10711 10712 10715 10715 10716 10717 10717 10719 10720 10721 10720 10720 10722 10723 10724 10726 10726 10729 10732 10727 10723 10728 10731 10730 10730 10731 10731 10732 10732 10732 10733 10733 10731 10730 10731 10735 10736 10735 10738 10739 10737 10738 10738 10736 10737 10736 10735 10736 10736 10737 10736 10736 10736 10735 10735 10735 10734 10734 10734
10633 10638 10640 10644 10647 10649 10653 10657 10660 10664 10667 10670 10671 10670 10672 10673 10676 10679 10680 10683 10689 10691 10694 10699 10700 10703 10705 10706 10706 10705 10707 10709 10709 10711 10710 10711 10712 10713 10714 10714 10713 10717 10719 10718 10718 10721 10726 10726 10722 10721 10723 10724 10725 10725 10725 10726 10726 10727 10727 10729 10728 10726 10726 10728 10730 10730 10729 10732 10735 10733 10734 10734 10731 10731 10731 10730 10731 10730 10730 10731 10730 10730 10730 10730 10730 10729 10729 10729
10626 10630 10633 10637 10639 10642 10646 10649 10655 10659 10660 10662 10662 10661 10663 10666 10668 10670 10671 10675 10682 10686 10688 10692 10695 10698 10700 10700 10699 10700 10703 10703 10704 10705 10703 10703 10705 10705 10708 10707 10708 10713 10713 10710 10711 10716 10722 10722 10717 10715 10716 10718 10720 10720 10720 10720 10721 10722 10723 10723 10722 10721 10721 10723 10725 10726 10725 10727 10728 10726 10730 10731 10725 10725 10726 10724 10724 10725 10725 10725 10724 10724 10724 10724 10724 10724 10723 10723
10618 10621 10625 10629 10632 10636 10638 10644 10653 10652 10652 10654 10654 10653 10656 10660 10660 10661 10663 10666 10676 10683 10683 10685 10689 10692 10694 10694 10695 10695 10695 10696 10699 10699 10696 10696 10698 10698 10700 10701 10703 10707 10706 10703 10706 10711 10718 10718 10711 10708 10710 10712 10715 10716 10714 10713 10715 10718 10720 10717 10714 10716 10717 10718 10719 10721 10721 10723 10721 10719 10725 10728 10721 10718 10719 10718 10718 10719 10719 10719 10718 10717 10718 10718 10718 10718 10718 10718
10610 10613 10617 10620 10624 10627 10631 10642 10646 10641 10645 10647 10644 10645 10650 10653 10652 10653 10655 10656 10671 10682 10679 10679 10683 10687 10689 10689 10689 10686 10687 10694 10694 10690 10689 10690 10690 10690 10693 10696 10697 10699 10699 10697 10700 10708 10712 10710 10705 10703 10705 10707 10709 10711 10707 10705 10710 10715 10716 10711 10707 10710 10712 10712 10713 10714 10716 10719 10718 10714 10717 10722 10719 10713 10711 10712 10713 10713 10712 10712 10711 10711 10711 10711 10711 10711 10712 10712
10603 10606 10608 10613 10617 10619 10626 10635 10633 10632 10639 10637 10634 10639 10643 10644 10643 10647 10646 10646 10666 10682 10678 10675 10677 10682 10685 10681 10680 10677 10683 10692 10685 10679 10683 10682 10682 10684 10687 10691 10691 10691 10692 10691 10695 10704 10705 10701 10700 10699 10699 10702 10703 10703 10700 10699 10705 10711 10710 10705 10703 10704 10705 10706 10708 10709 10711 10713 10715 10711 10707 10712 10717 10710 10704 10707 10709 10706 10705 10705 10705 10705 10704 10704 10704 10705 10705 10705
10595 10598 10601 10606 10609 10613 10620 10624 10623 10627 10629 10625 10626 10631 10634 10635 10635 10639 10635 10637 10666 10682 10675 10671 10671 10674 10677 10674 10672 10672 10679 10684 10675 10673 10676 10674 10676 10679 10681 10685 10685 10683 10685 10686 10691 10698 10697 10694 10694 10693 10694 10697 10697 10695 10694 10695 10700 10704 10702 10700 10698 10698 10699 10700 10702 10704 10705 10707 10711 10708 10699 10702 10711 10707 10700 10701 10702 10698 10698 10699 10699 10698 10698 10697 10698 10698 10698 10698
10587 10589 10593 10597 10600 10606 10611 10615 10620 10621 10618 10616 10618 10621 10624 10624 10626 10628 10622 10634 10666 10677 10670 10668 10665 10666 10669 10668 10667 10667 10671 10673 10670 10669 10668 10666 10671 10673 10675 10678 10678 10678 10679 10681 10686 10691 10691 10688 10686 10687 10690 10691 10689 10688 10689 10690 10693 10696 10695 10694 10693 10692 10692 10694 10696 10698 10698 10703 10706 10700 10692 10693 10704 10706 10698 10694 10694 10692 10692 10693 10692 10691 10691 10691 10691 10691 10691 10690
10580 10583 10586 10588 10593 10600 10605 10611 10614 10610 10607 10608 10609 10611 10612 10614 10618 10615 10615 10639 10664 10667 10665 10664 10659 10659 10659 10659 10660 10660 10661 10663 10664 10663 10661 10662 10664 10666 10669 10670 10671 10674 10675 10676 10681 10684 10684 10681 10680 10683 10684 10684 10684 10683 10684 10684 10685 10687 10687 10687 10687 10687 10687 10688 10690 10690 10692 10698 10698 10691 10686 10686 10698 10705 10694 10686 10686 10686 10686 10685 10684 10684 10684 10685 10684 10684 10683 10683
10573 10576 10578 10582 10588 10593 10598 10603 10603 10597 10595 10598 10599 10599 10602 10606 10606 10603 10618 10645 10653 10653 10658 10657 10654 10653 10650 10650 10651 10652 10654 10655 10656 10656 10656 10656 10656 10659 10664 10664 10666 10669 10670 10673 10674 10674 10675 10676 10677 10677 10677 10678 10678 10677 10677 10677 10678 10679 10680 10681 10680 10681 10683 10683 10684 10683 10685 10691 10690 10684 10681 10682 10694 10700 10690 10680 10678 10679 10680 10678 10678 10678 10678 10678 10677 10676 10676 10675
10564 10568 10571 10575 10580 10583 10590 10595 10590 10583 10585 10589 10589 10590 10594 10594 10592 10602 10627 10641 10638 10644 10652 10650 10650 10649 10643 10643 10643 10644 10646 10647 10647 10648 10649 10649 10650 10655 10658 10659 10661 10662 10665 10668 10665 10665 10668 10670 10671 10671 10672 10672 10670 10669 10670 10670 10671 10672 10674 10675 10674 10674 10677 10677 10677 10676 10677 10682 10684 10680 10677 10680 10688 10689 10682 10677 10673 10671 10672 10671 10672 10672 10671 10670 10670 10669 10668 10667
10556 10560 10562 10566 10571 10575 10582 10585 10578 10573 10579 10581 10578 10582 10584 10580 10589 10613 10628 10628 10629 10639 10644 10642 10643 10640 10636 10637 10636 10636 10636 10637 10640 10641 10642 10643 10646 10652 10653 10654 10655 10654 10656 10660 10658 10659 10662 10664 10665 10666 10665 10663 10661 10663 10664 10664 10665 10666 10668 10669 10667 10667 10670 10670 10668 10670 10672 10675 10676 10675 10674 10679 10682 10677 10672 10672 10670 10666 10665 10663 10664 10664 10663 10663 10662 10660 10660 10659
10547 10550 10553 10557 10561 10566 10572 10574 10568 10566 10570 10568 10567 10571 10569 10571 10597 10617 10617 10618 10624 10629 10632 10633 10632 10630 10630 10630 10630 10630 10628 10630 10633 10633 10634 10638 10642 10648 10648 10648 10649 10647 10647 10652 10653 10653 10655 10658 10659 10657 10656 10657 10655 10656 10658 10659 10659 10661 10662 10661 10661 10661 10660 10660 10661 10664 10667 10668 10669 10670 10670 10674 10674 10668 10665 10665 10665 10662 10659 10657 10657 10656 10656 10655 10653 10651 10652 10653
10538 10540 10544 10547 10550 10556 10564 10566 10561 10558 10559 10558 10558 10557 10558 10575 10603 10612 10607 10611 10615 10617 10621 10620 10618 10620 10622 10623 10625 10624 10621 10624 10626 10624 10627 10632 10637 10643 10643 10642 10643 10641 10640 10643 10646 10646 10646 10651 10654 10650 10649 10651 10650 10650 10652 10652 10653 10656 10656 10655 10657 10653 10648 10652 10657 10659 10660 10661 10664 10665 10665 10665 10664 10663 10661 10658 10656 10653 10653 10653 10653 10651 10649 10646 10644 10643 10644 10646
10526 10527 10531 10536 10543 10550 10557 10559 10556 10550 10549 10549 10545 10543 10559 10584 10599 10600 10598 10599 10602 10606 10607 10605 10607 10611 10614 10618 10620 10617 10616 10618 10618 10617 10621 10626 10631 10636 10638 10638 10635 10633 10634 10633 10635 10638 10638 10644 10648 10644 10643 10645 10644 10644 10646 10645 10648 10651 10650 10650 10649 10642 10641 10647 10651 10652 10652 10654 10659 10659 10658 10657 10656 10658 10658 10651 10647 10645 10645 10647 10646 10644 10642 10639 10637 10636 10637 10638
10514 10517 10521 10531 10540 10543 10547 10552 10549 10540 10538 10536 10530 10539 10564 10582 10586 10587 10588 10589 10593 10597 10594 10594 10600 10603 10607 10612 10613 10611 10610 10610 10611 10613 10616 10620 10624 10629 10631 10629 10626 10626 10627 10622 10622 10630 10632 10635 10641 10639 10638 10639 10637 10637 10640 10640 10643 10644 10642 10642 10638 10634 10639 10642 10642 10645 10645 10647 10652 10653 10652 10651 10650 10652 10650 10643 10641 10640 10639 10639 10637 10635 10633 10631 10629 10629 10631 10631
10505 10507 10513 10525 10532 10533 10536 10541 10538 10529 10526 10521 10518 10536 10562 10571 10574 10578 10579 10581 10586 10585 10582 10585 10592 10595 10598 10602 10604 10605 10602 10603 10607 10607 10609 10612 10617 10623 10623 10619 10618 10619 10618 10612 10613 10622 10623 10624 10633 10634 10632 10632 10630 10630 10635 10636 10635 10633 10633 10633 10630 10631 10635 10634 10634 10638 10638 10638 10643 10646 10647 10646 10645 10645 10642 10635 10633 10634 10633 10631 10628 10625 10623 10622 10622 10622 10624 10624
10495 10495 10504 10517 10522 10523 10525 10529 10527 10518 10511 10506 10508 10533 10558 10562 10565 10567 10566 10571 10575 10572 10574 10578 10581 10584 10589 10591 10594 10597 10595 10596 10600 10600 10601 10605 10610 10616 10615 10611 10611 10611 10608 10603 10605 10613 10614 10614 10624 10629 10625 10623 10624 10626 10629 10628 10624 10623 10627 10628 10627 10626 10627 10627 10628 10629 10629 10632 10635 10637 10640 10642 10640 10638 10635 10631 10627 10625 10624 10621 10617 10616 10615 10614 10614 10615 10615 10616
10483 10482 10495 10508 10509 10512 10515 10515 10512 10503 10497 10497 10505 10530 10550 10550 10552 10554 10554 10559 10562 10562 10567 10571 10570 10573 10580 10582 10584 10589 10588 10588 10592 10592 10594 10600 10604 10608 10608 10604 10603 10602 10598 10594 10596 10604 10607 10607 10612 10618 10616 10614 10617 10620 10618 10617 10617 10618 10621 10623 10622 10619 10618 10619 10622 10621 10619 10622 10625 10626 10633 10638 10636 10632 10629 10625 10620 10616 10612 10610 10608 10608 10607 10605 10606 10607 10607 10606
10472 10470 10486 10498 10497 10502 10505 10498 10494 10490 10488 10493 10503 10524 10537 10537 10541 10546 10546 10547 10551 10555 10560 10563 10563 10565 10571 10574 10575 10581 10581 10579 10584 10587 10588 10596 10599 10599 10600 10596 10593 10592 10589 10587 10591 10596 10598 10598 10600 10606 10609 10608 10609 10611 10608 10608 10612 10612 10613 10616 10616 10612 10610 10610 10613 10613 10610 10612 10615 10618 10626 10632 10630 10626 10622 10617 10611 10606 10602 10601 10600 10599 10598 10597 10598 10598 10597 10597
10462 10461 10476 10485 10484 10490 10490 10482 10482 10482 10482 10491 10505 10517 10523 10525 10530 10535 10536 10537 10540 10547 10551 10553 10557 10558 10561 10566 10567 10571 10572 10569 10575 10580 10583 10589 10590 10589 10590 10587 10585 10585 10582 10581 10586 10588 10587 10587 10588 10593 10600 10599 10599 10602 10601 10602 10605 10605 10607 10610 10607 10603 10600 10598 10602 10605 10604 10607 10609 10609 10618 10626 10622 10616 10614 10609 10604 10599 10594 10593 10592 10590 10590 10590 10589 10589 10588 10589
10452 10455 10464 10469 10471 10476 10474 10468 10470 10471 10476 10492 10500 10502 10506 10512 10517 10521 10525 10528 10531 10537 10542 10545 10549 10549 10551 10556 10557 10560 10562 10560 10564 10571 10575 10579 10580 10581 10582 10580 10579 10578 10575 10575 10580 10579 10576 10577 10577 10581 10589 10590 10590 10594 10595 10595 10597 10599 10599 10597 10594 10593 10591 10589 10593 10596 10598 10604 10603 10600 10609 10618 10612 10607 10604 10599 10596 10593 10589 10587 10585 10583 10584 10583 10581 10580 10580 10581
10443 10447 10451 10454 10458 10461 10458 10456 10458 10463 10475 10487 10486 10487 10495 10502 10506 10510 10516 10521 10524 10528 10532 10537 10541 10541 10541 10544 10546 10549 10552 10550 10554 10562 10566 10568 10573 10575 10573 10572 10573 10571 10568 10569 10570 10568 10567 10568 10567 10570 10577 10582 10584 10586 10587 10587 10587 10588 10588 10585 10586 10587 10583 10583 10585 10584 10591 10599 10596 10593 10601 10604 10599 10597 10594 10588 10587 10586 10583 10581 10579 10578 10578 10575 10574 10574 10573 10573
10432 10434 10438 10442 10445 10447 10446 10449 10453 10458 10470 10475 10473 10479 10487 10489 10495 10503 10507 10510 10514 10516 10520 10526 10529 10530 10530 10532 10534 10538 10542 10544 10546 10552 10556 10560 10565 10567 10564 10564 10565 10562 10561 10561 10561 10559 10558 10559 10559 10561 10567 10573 10575 10576 10578 10579 10577 10577 10580 10579 10579 10578 10575 10576 10575 10574 10585 10592 10587 10588 10592 10588 10586 10587 10583 10579 10578 10577 10575 10573 10572 10571 10569 10568 10568 10568 10567 10565
10418 10422 10427 10431 10434 10434 10437 10442 10444 10448 10457 10462 10463 10470 10475 10479 10488 10493 10493 10497 10502 10506 10510 10514 10516 10518 10518 10521 10525 10530 10535 10537 10536 10540 10547 10551 10554 10556 10554 10554 10555 10554 10553 10553 10552 10550 10549 10550 10553 10556 10558 10560 10563 10565 10568 10570 10569 10570 10572 10572 10571 10569 10568 10567 10566 10570 10577 10577 10578 10585 10580 10573 10575 10574 10571 10571 10569 10567 10566 10564 10562 10560 10560 10561 10561 10559 10557 10556
10405 10411 10418 10422 10424 10424 10427 10433 10436 10441 10449 10453 10455 10462 10465 10471 10478 10478 10479 10487 10493 10497 10499 10499 10503 10507 10510 10515 10519 10521 10525 10525 10525 10530 10537 10540 10543 10545 10544 10544 10545 10545 10544 10544 10543 10542 10541 10544 10547 10548 10547 10549 10551 10554 10558 10562 10563 10564 10563 10563 10564 10562 10559 10557 10560 10566 10563 10559 10574 10579 10564 10561 10565 10561 10560 10563 10560 10557 10557 10553 10552 10551 10551 10553 10551 10549 10547 10544
10394 10403 10410 10412 10413 10415 10419 10426 10430 10435 10441 10441 10444 10450 10453 10458 10463 10465 10472 10480 10482 10484 10485 10486 10494 10501 10504 10508 10508 10508 10511 10512 10514 10521 10527 10529 10531 10533 10533 10533 10534 10535 10535 10534 10534 10533 10532 10536 10539 10537 10539 10541 10540 10542 10547 10550 10555 10557 10555 10556 10556 10553 10551 10550 10553 10556 10548 10548 10566 10565 10549 10553 10556 10548 10551 10554 10548 10545 10545 10543 10544 10544 10543 10543 10541 10538 10536 10533
10385 10393 10400 10401 10403 10408 10413 10417 10419 10423 10428 10429 10430 10435 10441 10447 10454 10459 10464 10467 10468 10473 10474 10477 10488 10494 10493 10494 10494 10493 10498 10502 10505 10511 10515 10515 10517 10519 10520 10522 10524 10526 10525 10524 10525 10523 10521 10528 10532 10529 10530 10533 10532 10533 10536 10537 10542 10547 10546 10547 10547 10545 10542 10541 10543 10544 10536 10539 10552 10546 10538 10548 10548 10538 10541 10541 10534 10534 10534 10534 10536 10534 10533 10533 10530 10527 10524 10521
10376 10383 10390 10392 10395 10399 10403 10406 10408 10412 10418 10419 10419 10424 10430 10437 10445 10451 10451 10452 10458 10465 10465 10469 10481 10483 10479 10479 10479 10480 10487 10492 10495 10498 10500 10500 10502 10506 10509 10511 10514 10515 10514 10514 10515 10513 10512 10519 10524 10521 10520 10523 10526 10527 10527 10526 10528 10532 10535 10540 10541 10538 10534 10531 10532 10531 10524 10528 10537 10531 10530 10542 10539 10528 10527 10527 10526 10526 10524 10523 10523 10521 10522 10522 10518 10515 10511 10508
10366 10373 10377 10379 10382 10387 10391 10396 10399 10401 10406 10409 10413 10418 10421 10428 10437 10441 10438 10440 10449 10454 10454 10461 10470 10468 10464 10466 10468 10472 10478 10480 10481 10485 10487 10487 10490 10494 10496 10498 10502 10503 10503 10503 10504 10504 10504 10509 10515 10514 10510 10514 10519 10517 10516 10517 10514 10515 10528 10538 10534 10527 10524 10521 10520 10518 10515 10518 10522 10520 10525 10532 10525 10516 10516 10516 10516 10516 10513 10511 10510 10508 10509 10508 10506 10503 10498 10494
10354 10361 10365 10367 10370 10375 10380 10386 10389 10391 10395 10401 10407 10410 10413 10420 10426 10426 10422 10427 10437 10444 10447 10453 10456 10453 10451 10455 10459 10463 10466 10466 10468 10473 10474 10474 10477 10481 10482 10486 10489 10490 10490 10492 10493 10494 10497 10500 10505 10504 10500 10502 10507 10506 10506 10505 10499 10507 10528 10533 10520 10511 10511 10510 10511 10512 10509 10507 10507 10509 10516 10518 10510 10507 10508 10506 10503 10502 10500 10499 10497 10496 10496 10495 10493 10490 10484 10480